RH
49 50 49 47 44 41 38 35 33 32 31 30 29 29 29 29 30 30 30 30 30 32 32 31 34 36 36 36 37 36 34 34 34 33 32 32 33 32 31 30 28 27 26 24 23 21 19 18 17 16 16 15 15 14 13 12 12 11 11 11 12 12 12 12 12 12 13 13 14 14 15 15 15 15 15 15 14 14 13 13 13 13 12 12 12 12
46 43 39 36 34 31 30 29 28 27 27 27 27 28 28 30 33 35 37 37 36 38 37 36 38 40 41 42 42 41 39 38 38 38 38 38 37 36 34 33 31 29 26 24 21 18 17 15 15 14 14 14 14 13 13 12 11 10 9 9 9 9 9 9 10 10 10 11 11 12 12 13 13 14 14 14 15 14 14 14 13 13 13 12 12 12
35 32 30 28 26 25 25 24 24 25 25 27 28 30 32 33 36 40 43 44 42 41 41 39 40 41 42 42 42 41 39 39 39 39 39 38 36 34 33 31 28 25 22 19 17 15 13 12 12 11 11 11 11 11 11 11 10 9 8 7 7 7 7 7 7 8 8 8 9 9 9 10 11 12 12 13 13 14 14 14 14 14 14 13 13 12
26 24 23 23 22 22 23 23 25 26 27 29 31 34 37 38 39 41 43 43 41 40 39 38 37 37 36 37 37 36 34 35 35 34 34 33 33 30 28 25 22 20 18 17 16 15 15 14 13 13 12 12 11 11 10 9 9 9 8 7 7 7 7 7 7 7 7 7 7 7 7 8 8 9 10 10 11 12 12 13 13 14 14 14 14 13
22 21 21 21 22 23 24 26 28 30 32 35 37 38 39 40 39 38 38 37 36 35 33 32 32 31 31 33 34 32 31 32 33 34 35 34 33 32 29 26 23 22 20 19 18 18 18 17 16 16 15 14 13 12 11 10 9 9 8 7 7 8 7 7 7 7 7 7 6 7 7 7 7 7 8 8 8 9 10 10 11 12 12 13 13 13
21 21 21 23 25 27 30 32 34 37 38 38 38 38 36 36 35 35 35 34 35 35 32 32 32 29 29 32 33 33 33 35 36 37 38 37 36 34 31 29 27 25 23 21 20 19 18 17 17 17 16 15 14 12 11 10 10 9 9 8 7 7 7 6 6 6 7 7 6 6 6 6 6 7 7 7 7 7 8 8 9 9 10 11 11 12
23 25 28 30 32 33 35 36 37 36 35 35 35 34 35 35 36 38 39 40 42 42 38 37 38 33 32 35 37 37 37 39 42 44 45 44 41 37 32 30 29 27 25 23 21 20 18 17 16 15 15 14 13 12 11 9 9 9 8 7 7 6 7 6 6 6 6 6 6 5 6 6 6 6 7 7 7 7 7 6 7 7 8 8 9 10
29 31 32 32 33 33 33 33 33 33 33 34 34 35 36 37 38 42 45 47 50 53 50 48 47 43 45 50 46 43 44 45 48 51 52 49 44 38 33 29 27 24 22 20 19 18 17 16 14 13 12 12 11 10 10 9 8 8 7 6 6 6 6 6 5 6 5 5 5 5 5 6 6 6 6 6 6 7 6 6 6 6 6 6 7 8
30 30 29 29 29 29 28 28 28 30 32 33 34 36 38 41 45 49 55 62 70 78 77 68 59 51 54 62 59 51 49 49 51 51 48 44 37 31 26 22 20 18 17 16 15 14 13 12 11 10 10 9 9 8 7 8 7 7 7 6 5 5 5 5 5 5 5 5 5 5 5 5 5 5 5 6 6 6 7 6 6 6 6 5 5 6
25 24 23 23 23 23 24 24 26 28 31 34 38 43 47 51 56 61 68 75 82 88 88 77 66 59 57 60 60 54 48 45 45 42 37 31 25 21 18 16 15 15 15 15 13 12 10 9 8 7 7 6 6 6 6 6 6 6 6 5 5 4 4 4 4 4 4 5 4 4 4 4 4 5 5 5 5 6 6 6 6 6 6 6 5 5
21 20 21 22 23 24 26 28 31 35 39 43 46 50 53 55 59 64 70 76 80 85 86 74 62 60 56 48 45 43 38 37 36 33 30 26 21 18 17 16 15 15 15 13 11 10 8 7 7 6 6 6 5 5 5 5 5 5 5 4 4 4 4 4 4 4 4 4 4 4 4 4 4 4 4 5 5 5 5 5 6 6 6 6 5 5
24 24 26 27 29 32 36 41 45 50 53 53 51 51 52 54 59 64 67 71 75 80 82 68 50 48 46 36 33 32 31 33 36 35 31 25 19 17 16 15 14 13 11 9 7 7 6 5 5 5 5 5 4 4 4 4 4 4 4 4 4 3 4 4 3 4 4 4 4 4 4 4 4 4 4 4 4 4 4 5 5 5 5 5 5 5
29 31 35 37 41 47 51 53 54 55 56 55 53 53 54 56 57 58 56 55 57 63 72 68 54 51 46 38 36 35 33 34 34 32 27 21 16 14 13 12 11 10 7 6 6 5 5 4 4 4 3 3 4 4 3 3 3 3 3 3 3 3 3 3 3 3 3 3 3 4 4 4 4 3 3 3 3 4 3 4 4 4 4 4 4 4
38 42 46 50 54 58 60 60 57 56 58 59 59 55 51 46 41 40 36 33 35 41 55 66 67 65 50 36 33 30 27 29 28 27 24 18 14 11 10 10 9 8 6 5 5 4 4 4 3 3 3 3 3 3 3 3 3 3 3 3 2 3 2 2 2 2 2 2 2 3 3 3 3 3 2 3 3 3 3 3 3 3 3 3 3 3
52 56 57 59 62 63 63 62 58 56 54 52 48 41 38 35 31 31 28 25 23 24 38 50 58 65 46 23 23 22 22 28 27 25 20 14 12 10 10 10 8 7 6 5 5 4 4 4 4 3 3 3 2 2 2 2 2 2 2 2 2 2 2 2 2 2 2 2 2 2 2 2 2 2 2 2 2 2 2 2 3 3 3 3 3 3
60 63 62 59 58 55 53 51 48 46 41 38 37 34 36 35 32 32 32 34 28 22 36 44 51 72 59 27 23 23 20 24 22 19 15 11 11 11 9 9 7 6 5 5 4 4 4 3 3 3 3 2 2 2 2 1 2 2 2 2 2 2 2 2 2 2 2 2 2 2 2 2 2 2 2 2 2 2 2 2 2 2 2 2 2 2
55 53 50 47 44 41 41 44 45 44 42 41 39 36 37 38 39 39 38 39 30 21 38 50 59 76 59 25 21 20 14 16 16 15 14 10 9 9 8 7 6 6 5 4 4 3 3 3 3 3 2 2 2 2 2 2 2 2 2 2 2 2 2 2 2 2 2 2 1 2 2 2 2 2 2 2 2 2 2 2 2 2 2 2 2 2
45 43 42 40 41 41 42 45 46 49 51 51 49 45 43 40 42 45 38 32 23 16 30 46 63 72 44 17 18 16 12 15 13 13 11 8 8 7 7 6 4 5 4 3 4 2 3 3 2 3 2 2 2 2 2 2 2 2 2 2 2 2 2 2 2 2 2 2 2 2 2 2 2 2 2 2 2 2 2 2 2 2 2 2 2 2
41 43 43 42 44 48 52 53 52 54 56 58 59 59 55 47 45 48 45 37 25 19 21 28 53 70 44 20 20 15 13 15 11 11 10 7 7 6 5 6 4 4 4 3 3 2 2 3 2 3 2 2 2 2 2 2 2 2 2 2 2 2 2 2 2 2 1 2 2 2 2 2 2 2 2 2 2 2 2 2 2 2 2 3 2 2
46 49 51 52 51 54 61 65 61 59 59 60 62 64 62 56 52 52 53 49 36 28 22 16 40 66 46 23 21 14 11 13 9 9 8 5 7 6 5 5 4 4 3 3 3 2 2 2 2 2 2 2 2 2 2 2 2 2 2 2 2 2 2 2 2 2 2 2 2 2 2 2 2 2 2 2 2 2 2 2 2 2 2 3 2 2
54 56 61 66 67 67 70 73 70 69 72 74 71 67 61 54 49 48 49 51 46 38 28 16 32 55 41 20 18 13 9 11 9 7 7 5 6 5 5 5 4 4 3 2 3 2 2 2 2 2 2 2 2 2 2 2 2 2 2 2 2 2 2 2 2 2 2 2 2 2 2 2 2 2 2 2 2 2 2 2 2 3 2 2 2 2
62 63 67 74 78 80 82 83 83 82 85 90 87 74 64 54 48 49 46 46 52 51 35 21 27 43 36 19 15 12 9 9 9 7 6 5 5 5 5 5 4 4 3 2 3 2 2 2 2 2 2 2 2 2 2 2 1 2 2 2 2 2 2 2 2 2 2 2 2 2 2 2 2 2 2 2 2 2 2 2 2 2 2 2 2 2
72 71 71 75 79 82 86 90 91 86 81 86 89 79 72 65 61 63 54 43 52 56 37 20 22 33 33 23 16 12 9 8 8 7 6 5 5 5 5 4 4 4 3 3 3 2 3 2 2 2 2 2 2 2 2 2 2 2 2 2 2 2 2 2 2 2 2 2 2 2 2 2 2 2 2 2 2 2 2 2 2 2 2 2 2 2
79 77 73 75 78 80 84 86 83 79 70 70 76 76 74 73 72 74 63 47 52 56 37 17 14 22 25 20 15 12 9 8 7 6 6 5 5 5 4 5 4 3 3 2 2 3 2 2 2 2 2 2 2 2 2 2 2 2 2 2 2 2 2 2 2 2 2 2 2 2 2 2 2 2 2 2 2 3 2 2 2 2 2 2 2 2
85 84 77 74 77 77 80 81 79 80 78 75 77 82 82 80 78 76 65 50 48 49 39 21 10 14 17 15 14 11 8 7 6 6 6 5 5 5 4 4 4 3 3 2 2 3 2 2 2 2 2 2 2 2 2 2 2 2 2 2 2 2 2 2 2 2 2 2 2 2 2 2 2 2 2 2 2 3 2 3 3 2 3 3 2 3
89 91 87 79 78 78 81 86 85 86 88 88 87 90 90 86 83 79 66 51 40 35 36 28 13 10 13 11 10 9 6 7 5 4 5 4 4 5 4 4 4 3 3 2 2 3 2 2 2 2 2 2 2 2 2 2 2 2 2 2 2 2 2 2 2 2 2 2 2 2 2 2 2 2 2 2 3 3 3 3 3 3 3 3 3 3
93 96 96 89 83 83 88 93 94 94 96 99 97 95 93 87 87 85 66 48 40 28 23 26 17 10 12 10 9 7 5 5 5 4 4 4 4 4 4 3 3 3 3 3 2 3 2 3 2 2 2 2 2 2 2 2 2 2 2 2 2 2 2 2 2 2 2 2 2 2 2 2 3 2 3 3 2 3 3 3 3 3 3 3 3 3
97 99 101 98 92 91 93 96 101 103 102 104 102 98 96 90 91 91 69 47 45 31 13 15 16 11 11 10 7 7 5 5 5 4 4 4 3 3 3 3 3 3 3 2 3 3 2 2 2 2 2 2 2 2 2 2 2 2 2 2 2 2 2 2 2 2 2 2 3 3 3 3 3 3 3 3 3 3 3 3 3 3 3 3 3 3
101 103 104 105 102 99 99 100 106 109 105 106 105 100 100 95 91 92 73 49 46 36 16 11 13 10 10 11 9 8 6 5 4 4 4 3 3 3 3 3 3 3 3 3 2 2 2 2 2 2 2 2 2 2 2 2 2 2 2 2 2 2 2 2 2 2 2 2 3 3 3 3 3 3 3 3 3 3 3 3 3 3 3 3 3 3
103 104 105 108 106 104 106 104 106 108 105 106 107 102 103 100 91 88 73 47 38 34 22 14 13 11 11 10 10 9 6 5 5 3 4 4 3 3 3 3 3 3 3 3 2 2 2 2 2 2 2 2 2 2 2 2 2 2 2 2 2 2 2 2 2 2 2 3 3 3 3 3 3 3 3 4 4 4 4 4 4 4 3 3 3 3
102 103 105 108 107 106 106 102 101 105 105 105 106 102 99 99 95 87 67 40 25 20 17 15 11 10 10 8 9 9 7 6 6 3 4 4 3 3 3 2 3 3 2 3 3 3 3 2 2 2 2 2 2 2 2 2 2 2 2 2 2 2 2 2 2 3 2 3 3 3 3 3 3 4 3 3 4 3 4 4 4 4 4 4 4 4
99 101 101 105 108 108 107 103 100 103 104 102 101 96 89 91 99 95 68 41 27 16 9 11 10 7 8 7 6 8 7 6 6 4 4 4 3 3 3 2 3 2 2 3 2 2 2 2 2 2 2 2 2 2 2 2 2 2 2 2 2 2 2 2 2 3 3 3 3 3 3 3 3 4 3 3 4 3 4 4 4 4 4 4 4 4
97 99 100 103 107 108 107 105 103 103 103 100 94 89 81 77 88 97 72 37 26 21 10 9 10 7 7 7 5 7 7 6 6 4 3 3 3 3 3 2 2 2 2 2 2 2 2 2 2 2 2 2 2 2 2 2 2 2 2 2 2 2 2 2 2 3 3 3 3 3 3 3 3 4 3 3 4 3 4 3 3 4 3 3 4 3
96 98 100 102 105 106 104 102 101 102 102 97 89 83 77 64 65 88 86 48 24 23 16 11 13 9 7 8 6 5 6 6 5 4 3 3 3 3 3 3 2 2 3 3 2 2 2 2 2 2 2 2 2 2 2 2 2 2 2 2 2 2 2 2 3 3 3 3 3 3 3 3 3 3 3 3 3 3 3 3 3 3 3 3 3 3
96 98 99 101 103 103 100 96 94 96 97 97 89 80 74 60 48 67 88 67 34 21 16 12 11 9 6 7 6 5 6 6 6 5 4 4 4 4 4 3 3 3 3 3 3 2 2 2 2 2 2 2 2 2 2 2 2 2 2 2 2 2 2 2 3 3 3 3 3 3 3 3 3 3 3 3 3 3 3 3 3 3 3 3 3 3
98 98 98 97 99 100 97 93 92 91 90 91 85 72 64 57 42 40 52 48 27 15 12 9 8 7 7 7 6 5 5 6 7 7 6 6 4 4 4 3 3 2 2 3 2 2 3 2 2 3 2 2 2 2 3 2 2 2 2 2 2 2 2 2 2 3 3 3 2 2 2 2 3 3 3 3 3 3 3 3 3 3 3 3 3 3
100 99 99 97 98 98 95 92 87 84 82 80 76 66 57 52 42 30 25 23 16 11 10 7 6 7 7 6 6 5 4 5 7 6 6 5 4 4 4 4 3 2 2 3 2 2 2 2 2 3 2 2 2 2 2 2 2 2 2 2 2 2 2 2 2 3 3 3 2 2 2 3 3 3 3 3 3 3 3 3 3 3 3 3 3 3
102 102 101 99 99 100 96 90 83 79 78 75 71 66 59 50 41 32 24 19 15 11 8 7 7 6 6 6 5 4 4 4 5 5 4 4 4 3 4 4 3 3 2 2 3 2 2 2 2 2 2 2 2 2 2 2 2 3 3 3 3 2 3 3 2 3 3 3 3 2 3 3 3 3 3 3 3 3 3 3 3 3 3 3 3 3
104 102 101 98 97 99 99 95 87 81 77 75 72 67 61 54 44 34 26 19 14 11 8 7 7 5 5 5 4 4 4 3 3 4 3 4 4 3 3 3 3 3 3 2 2 2 2 2 2 2 2 2 2 2 2 2 2 3 3 3 3 3 3 3 3 3 3 3 3 3 3 3 3 3 3 3 3 3 3 3 3 3 3 3 3 3
107 104 103 100 97 96 99 97 91 85 79 77 74 66 59 53 45 35 26 18 12 10 8 6 6 5 5 5 4 4 4 3 3 4 4 4 4 4 4 3 3 3 2 2 2 2 2 2 2 2 2 2 2 2 2 2 2 3 3 3 3 3 2 3 2 2 3 3 3 3 3 3 3 3 3 3 3 3 3 3 3 3 3 3 3 3
108 105 103 102 97 94 95 95 91 86 80 76 72 64 54 47 40 33 25 16 11 9 7 6 6 5 5 5 4 4 4 4 4 4 4 4 4 4 4 4 3 3 2 2 2 2 2 2 2 2 2 2 2 2 2 2 2 2 3 3 3 2 2 2 2 2 2 2 2 3 3 3 3 3 3 3 3 3 3 3 3 3 3 3 3 3
106 103 100 99 96 91 90 89 84 79 74 68 64 59 51 42 35 29 22 15 11 9 7 6 6 5 5 5 5 4 4 5 4 4 5 4 4 4 4 3 4 3 2 2 2 2 2 2 2 2 2 2 2 2 2 2 2 2 3 3 2 3 2 2 2 2 2 2 2 3 3 3 3 3 3 3 3 3 3 3 3 3 3 3 3 3
105 103 99 97 93 87 85 85 82 76 71 67 62 58 52 43 35 28 22 16 12 8 7 6 6 5 5 5 5 5 5 5 5 4 5 5 4 4 4 3 4 3 2 2 2 2 2 2 2 2 2 2 2 2 2 2 2 2 3 2 2 2 2 2 2 2 2 2 3 3 3 3 3 3 3 3 3 3 3 3 3 3 3 3 3 2
104 104 101 97 95 90 86 87 87 81 75 71 66 60 53 44 35 29 23 17 12 9 7 6 5 5 5 5 6 5 5 5 5 4 4 5 4 4 4 4 3 3 3 2 2 2 2 2 2 2 2 2 2 2 2 2 2 2 2 2 2 2 2 2 2 2 3 3 2 3 3 3 3 3 3 3 3 3 3 3 3 3 3 3 3 3
102 103 101 99 98 95 90 88 88 82 76 71 66 60 53 45 36 29 22 16 12 9 7 6 6 5 5 5 6 6 5 5 5 4 4 4 4 4 4 4 3 3 3 2 2 2 2 2 2 2 2 2 2 2 2 2 2 2 2 2 2 2 2 2 2 2 3 3 2 3 3 3 3 3 2 3 3 3 3 3 3 3 3 3 3 3
99 99 100 99 97 93 89 85 84 81 76 71 67 62 57 51 41 30 22 17 12 10 8 6 6 5 5 6 6 6 6 6 5 5 4 4 4 4 4 4 4 4 3 2 2 2 2 2 2 2 2 2 2 2 2 2 2 2 2 2 2 2 2 2 3 2 2 3 3 3 3 3 3 3 3 3 3 3 3 3 3 3 3 3 3 3
97 96 97 98 95 92 89 85 82 82 77 70 67 64 59 53 43 32 24 17 12 9 8 6 6 6 5 6 6 6 6 6 5 5 4 4 4 4 4 4 4 4 3 2 2 2 2 2 2 2 2 2 2 2 2 2 2 2 2 2 2 2 2 2 2 3 3 3 3 3 3 3 3 2 3 3 3 3 3 3 3 3 3 3 3 4
94 92 93 94 93 91 87 81 78 79 76 70 66 62 56 50 41 32 24 17 12 9 7 6 6 6 5 5 5 6 6 6 5 5 4 4 4 4 4 4 4 4 3 2 2 2 2 2 2 2 2 2 2 2 2 2 2 2 2 2 2 2 2 2 2 3 3 3 3 3 3 3 3 3 3 3 3 3 3 3 3 3 3 4 4 4
92 90 89 89 89 87 82 76 73 72 71 68 63 58 53 46 39 31 23 17 11 8 7 6 6 5 6 6 5 5 6 6 6 5 4 4 4 4 4 4 4 4 3 2 2 2 2 2 2 2 2 2 2 2 2 2 2 2 2 2 2 2 2 2 3 3 3 3 4 3 3 3 3 3 3 3 3 3 3 3 3 3 4 4 4 4
92 90 88 87 87 85 80 76 71 68 66 63 58 54 50 44 38 31 24 16 11 8 6 6 6 5 6 6 5 5 6 6 6 5 5 4 4 4 4 4 4 4 4 3 2 2 2 2 2 2 2 2 2 2 2 2 2 2 2 2 2 2 2 2 3 3 3 3 3 3 3 3 3 3 3 3 3 3 3 3 3 3 4 4 4 4
94 91 88 88 88 86 81 76 71 67 63 60 55 51 47 43 38 31 23 16 11 8 6 6 6 5 6 6 6 6 6 6 6 5 5 5 4 4 4 4 4 4 4 3 2 2 2 2 2 2 2 2 2 2 2 2 2 2 2 2 2 2 2 2 3 3 3 3 3 3 3 3 3 3 4 3 4 4 3 3 4 4 4 4 4 4
Wind_Speed
60 60 61 62 63 64 65 65 66 66 67 67 68 69 69 71 73 76 77 78 80 82 84 85 87 89 91 93 95 97 98 98 100 101 102 103 105 106 107 107 108 108 109 108 108 107 106 105 104 104 103 103 103 102 102 101 100 99 99 99 99 100 100 101 101 102 104 106 108 109 111 112 113 114 114 115 114 114 114 114 114 114 114 114 114 114
60 60 61 62 62 63 64 64 65 66 67 68 69 70 71 72 74 77 80 82 83 85 87 89 89 91 93 95 97 99 100 101 102 103 105 106 107 108 109 110 111 111 111 111 110 109 107 107 106 105 105 105 105 105 105 105 103 102 101 100 99 99 99 99 99 99 100 101 103 104 106 108 109 111 112 113 114 114 115 115 115 115 115 115 114 113
59 60 61 61 62 62 63 64 65 66 68 69 70 72 74 75 76 79 82 84 86 88 89 91 91 91 93 95 96 98 99 100 101 103 104 106 107 108 110 110 111 112 111 111 110 109 108 107 106 106 105 105 105 105 106 106 105 104 103 100 98 97 98 98 98 98 98 99 100 101 102 104 105 106 108 109 110 112 113 114 115 115 116 116 115 115
58 59 60 61 62 63 64 65 66 68 69 71 73 74 76 78 80 80 82 85 87 88 89 90 90 90 90 92 93 95 95 96 98 99 101 103 104 106 107 108 109 109 109 109 109 109 109 109 108 108 107 107 107 107 106 106 105 105 104 101 99 98 99 99 98 98 98 98 99 100 100 100 102 103 104 106 107 108 110 111 112 113 115 116 116 116
58 59 60 61 62 63 65 67 68 70 72 73 75 77 78 79 81 82 82 83 85 86 87 87 88 88 88 88 89 91 92 93 94 96 97 99 100 102 104 105 106 107 107 107 107 108 108 108 108 108 108 107 108 107 106 105 104 104 103 102 100 99 100 100 98 97 97 97 98 98 98 98 99 99 101 103 105 107 109 110 110 110 112 114 115 116
58 59 60 62 63 65 67 69 70 72 73 74 76 77 78 78 79 80 80 80 81 83 84 85 87 86 86 87 87 88 89 90 92 94 95 97 99 100 102 103 104 105 106 106 106 106 106 106 106 106 106 106 106 106 104 103 102 102 102 101 99 98 99 98 97 95 96 97 96 96 96 96 96 97 98 100 102 105 107 108 109 110 110 112 114 115
59 60 62 63 65 67 68 69 70 71 72 72 73 74 74 75 75 76 77 78 79 81 82 83 85 85 85 87 88 88 90 90 91 93 95 97 99 101 101 102 103 104 106 106 106 106 106 105 105 104 104 104 104 104 103 101 100 100 100 100 99 97 97 97 96 94 94 96 95 94 94 94 95 95 96 98 100 102 104 105 107 108 109 110 112 114
59 60 62 63 64 65 66 66 67 68 68 69 70 71 72 73 74 75 76 77 78 80 81 82 84 84 85 88 89 90 91 91 91 93 95 98 100 102 102 102 103 103 103 104 104 104 103 103 102 101 101 101 101 101 100 100 99 98 98 98 97 96 95 95 95 94 93 94 94 93 93 93 94 95 95 96 98 100 101 102 103 105 107 108 110 112
58 59 60 61 62 63 63 64 65 65 66 67 68 69 71 72 74 74 75 75 76 77 79 81 84 85 84 87 90 90 90 91 92 94 96 99 100 100 100 100 100 100 101 102 102 101 100 99 98 97 96 97 98 98 97 98 98 98 98 98 97 96 94 93 93 92 92 93 94 93 92 92 93 94 95 95 97 98 99 100 101 102 104 105 107 108
56 57 58 59 60 61 62 62 63 64 65 66 67 69 71 72 72 72 72 72 73 74 76 79 82 85 85 85 88 90 91 91 93 95 97 99 99 98 98 98 99 100 101 101 101 100 98 96 95 94 94 93 94 94 94 95 95 96 97 98 98 97 95 93 91 91 91 92 93 93 92 91 92 93 94 94 95 96 98 99 100 101 102 103 104 105
55 56 57 58 59 60 61 62 63 65 66 66 67 68 68 69 70 70 70 70 70 70 72 75 78 83 85 84 85 89 91 92 93 95 97 99 99 99 99 99 100 100 100 100 98 97 96 94 93 92 92 92 91 91 92 93 93 93 94 95 96 96 95 94 92 92 92 92 92 92 91 91 91 92 93 94 95 96 97 98 99 101 102 103 104 104
55 56 57 58 59 60 61 62 62 63 64 65 66 66 66 66 67 67 68 67 67 67 69 73 74 78 83 83 83 85 87 89 92 94 97 99 99 98 97 98 98 98 97 95 92 91 91 89 88 88 88 88 87 87 88 89 90 90 91 92 93 93 93 93 92 92 91 91 91 91 91 91 91 91 92 93 94 96 97 98 99 100 102 103 103 104
54 55 56 57 58 59 59 59 60 60 61 62 63 63 63 62 62 62 63 62 62 63 66 69 70 73 77 78 80 81 82 84 88 91 94 96 96 94 94 93 93 93 92 90 88 87 86 85 83 82 82 82 81 81 82 83 84 85 86 87 88 88 88 88 88 88 87 87 88 88 89 90 91 91 90 91 92 94 95 96 97 98 100 101 101 102
52 53 53 53 54 54 55 57 58 58 58 59 60 61 61 62 62 62 63 62 60 58 62 67 70 72 73 72 75 78 79 81 85 88 92 93 92 91 90 91 91 91 90 88 87 85 84 82 80 80 79 78 77 77 77 76 77 78 78 79 79 80 81 82 82 81 81 80 81 83 84 86 88 89 89 88 88 90 91 92 93 94 96 97 98 99
51 50 51 51 51 51 52 53 55 55 55 57 59 61 63 65 65 66 68 69 67 62 63 68 72 77 79 76 77 80 80 82 84 87 89 89 89 89 89 91 91 90 89 87 86 84 82 80 78 78 77 77 76 75 73 72 71 72 72 73 73 74 75 76 75 75 74 74 74 76 78 80 82 83 84 85 85 85 86 87 88 89 91 93 94 96
49 48 48 48 48 48 49 51 54 56 58 59 62 63 65 67 69 70 71 73 73 70 69 72 75 81 85 82 82 83 81 82 84 87 89 88 88 89 88 88 88 87 86 84 83 81 79 76 75 75 74 73 73 72 70 68 67 67 67 67 68 68 69 70 70 70 69 69 69 70 72 74 76 77 78 79 80 81 82 83 84 85 87 88 90 92
47 47 47 47 48 49 51 54 58 61 63 65 67 67 68 70 72 73 72 72 73 72 72 75 77 81 85 84 84 85 84 84 85 88 90 88 87 86 86 86 84 83 81 80 80 78 75 73 72 72 72 71 69 68 66 65 63 62 62 63 63 63 64 64 65 65 65 64 64 65 67 68 69 70 71 72 74 76 76 78 79 80 82 84 85 87
48 50 52 52 53 55 57 59 61 63 65 68 70 72 72 73 75 77 77 75 74 73 74 76 79 84 88 86 86 88 89 89 88 88 88 87 85 84 83 83 81 79 78 77 77 75 72 71 70 70 70 69 68 65 63 62 61 59 59 59 59 59 60 60 60 60 60 60 60 61 62 62 63 64 64 66 68 69 71 72 73 74 76 79 81 82
53 55 57 58 58 60 62 64 65 66 67 69 70 73 75 76 76 78 80 81 80 78 77 76 79 87 92 91 91 90 91 92 90 87 86 85 84 82 81 81 79 77 75 74 74 73 70 68 68 67 66 65 64 63 60 59 58 57 57 56 56 56 56 56 56 56 56 56 56 56 57 57 58 58 59 60 62 63 65 67 68 69 71 73 75 77
58 59 61 63 64 65 66 67 68 69 70 71 72 73 75 77 78 79 80 82 83 83 83 80 79 87 93 93 93 93 92 93 92 87 85 84 83 82 81 80 79 77 74 71 71 69 65 64 65 64 62 59 59 59 58 56 55 55 54 54 53 53 53 53 53 53 53 53 53 53 53 53 54 55 55 56 57 59 61 62 63 64 66 68 70 72
62 63 64 65 67 68 68 69 71 72 73 73 74 75 77 78 79 81 81 82 84 86 88 86 83 87 93 92 92 93 92 93 94 90 86 83 83 83 82 81 80 78 74 70 69 67 63 61 60 60 58 56 55 55 55 55 54 53 53 52 52 52 51 51 51 51 51 51 51 50 50 50 50 51 52 53 54 55 57 58 59 60 62 63 65 66
65 66 66 66 66 67 68 69 70 72 72 74 76 77 79 80 81 82 83 84 86 88 91 90 87 90 96 96 95 95 93 93 94 92 87 83 82 82 81 79 79 79 75 71 68 67 64 60 58 56 55 54 52 52 53 53 53 53 53 52 52 52 51 50 50 50 49 48 48 48 47 47 47 48 49 50 52 53 54 56 57 58 59 59 60 61
68 68 68 67 67 68 68 69 70 71 72 73 75 78 80 82 84 86 87 87 88 90 91 90 87 90 97 100 100 98 95 94 95 94 90 85 82 82 80 78 77 77 75 71 67 65 63 60 57 54 53 52 51 50 51 51 51 51 51 52 52 52 52 51 51 50 48 47 46 46 46 46 46 46 47 48 49 51 53 54 55 56 56 57 58 59
69 70 70 69 69 70 70 70 71 73 74 75 77 80 83 85 87 89 91 90 90 92 94 90 86 87 93 96 98 99 97 95 95 94 92 86 82 80 78 77 76 75 73 69 66 63 60 57 55 53 52 51 50 50 49 49 49 49 49 50 50 51 51 50 50 49 48 46 45 45 45 46 46 46 47 47 48 50 51 53 53 54 54 55 56 57
71 73 73 73 73 72 72 73 74 76 78 80 82 84 86 88 90 91 93 92 92 94 97 96 89 86 89 92 95 98 97 95 93 92 91 88 84 80 76 75 74 73 72 67 63 60 57 55 53 51 50 50 50 50 49 48 47 47 47 47 48 49 49 49 49 48 47 46 45 45 45 45 46 47 47 48 48 49 50 50 50 50 51 52 54 55
73 75 77 79 79 79 79 80 81 82 83 85 86 87 88 90 92 95 96 95 94 93 97 100 95 88 88 90 91 93 94 94 92 90 89 86 84 81 77 73 71 71 70 66 61 58 57 55 53 50 49 49 49 50 49 49 48 47 47 47 47 48 48 48 48 47 46 45 44 44 44 45 45 46 47 47 48 49 48 47 47 47 48 49 50 51
75 76 79 81 83 84 84 85 86 86 86 87 88 89 90 91 94 98 99 97 96 95 94 99 101 97 93 92 91 90 90 92 91 89 86 83 81 77 74 72 71 70 70 68 64 61 58 56 54 52 50 49 49 49 50 49 49 48 48 47 47 47 46 46 46 46 45 44 44 44 44 44 44 45 45 46 46 46 46 46 46 46 46 47 47 49
77 78 79 82 84 85 86 86 87 88 88 89 90 90 91 92 95 99 100 99 99 98 94 94 99 100 97 96 95 92 90 90 89 87 85 83 80 77 74 72 71 71 72 71 67 63 58 56 55 53 51 50 48 49 49 48 48 48 48 48 48 47 46 45 45 44 44 44 44 44 44 44 44 43 43 43 43 44 45 45 45 46 46 46 46 47
78 80 80 82 85 86 87 88 88 89 89 90 91 92 93 94 95 98 102 102 102 103 100 97 98 101 100 99 99 97 93 91 89 88 87 85 81 79 76 73 71 70 69 67 65 61 56 54 53 52 52 51 49 48 48 48 48 48 48 48 48 47 46 45 44 43 42 42 42 43 43 43 43 42 41 41 41 43 44 44 45 45 45 46 46 47
81 82 82 84 85 87 89 89 89 89 91 92 93 94 95 95 96 99 103 103 103 104 105 104 102 102 102 102 101 100 97 94 90 88 87 86 82 78 75 72 70 67 65 63 61 59 56 54 52 51 51 51 50 48 48 48 47 47 48 48 48 47 45 44 43 42 41 40 40 41 41 41 41 41 40 40 41 42 42 43 44 44 45 45 46 46
84 85 85 86 88 89 90 90 91 92 93 94 95 96 96 97 99 102 105 104 102 102 103 105 104 102 102 101 101 101 99 96 91 86 83 82 79 75 72 69 67 65 63 61 59 57 55 53 52 51 50 49 49 48 47 47 46 46 46 47 47 45 44 42 41 40 39 38 39 39 40 40 39 39 40 40 41 41 41 42 43 44 44 45 45 46
87 88 88 89 90 92 93 93 94 94 95 96 96 97 98 100 101 104 107 108 106 104 102 102 103 103 102 101 98 97 97 94 91 85 80 77 75 74 71 67 65 63 61 59 57 55 54 53 52 51 50 49 48 47 46 45 45 44 44 45 45 43 42 40 38 37 37 37 38 38 38 38 38 38 39 40 41 40 41 42 43 43 43 44 44 45
90 91 92 92 92 94 95 96 97 97 97 97 98 100 101 102 102 105 108 109 109 109 107 106 105 105 103 100 96 93 91 90 89 86 81 76 73 71 70 67 64 62 60 58 55 52 52 51 50 50 49 48 47 46 46 45 45 44 43 43 43 41 39 38 36 36 36 36 36 37 37 37 37 37 38 38 39 39 40 41 42 42 42 42 42 43
93 94 95 96 96 96 97 98 98 99 99 100 102 102 103 103 103 105 109 110 109 109 110 109 108 105 102 101 99 94 91 90 88 85 82 78 74 70 68 66 64 61 59 57 54 51 49 49 49 48 48 47 47 46 45 44 44 43 43 42 41 40 38 37 35 35 35 36 35 35 35 35 34 35 35 36 36 37 38 39 39 40 40 39 39 40
96 97 98 99 99 99 100 100 100 101 102 103 103 103 104 105 104 105 109 112 111 110 109 108 106 104 102 102 102 97 92 90 89 84 80 78 75 72 69 66 63 61 58 56 54 51 49 47 47 47 47 47 46 46 45 44 44 43 43 42 41 39 37 36 35 34 35 35 35 34 33 32 32 32 32 33 34 35 36 37 37 37 37 37 37 38
98 99 100 101 102 102 103 104 104 105 105 104 104 105 105 106 106 106 108 110 111 110 108 106 104 105 104 103 101 97 90 87 87 84 80 77 75 72 70 67 64 61 58 56 53 51 49 48 46 46 46 46 45 45 45 44 43 43 43 42 41 40 38 37 35 34 34 35 35 33 32 31 30 30 31 32 33 34 34 35 35 35 35 35 35 35
101 102 103 104 105 106 106 107 106 107 107 108 108 109 109 110 110 110 110 111 112 111 109 108 106 105 103 100 98 94 88 83 82 80 78 77 75 72 71 69 66 63 60 58 55 52 49 48 46 45 45 45 45 45 44 43 43 43 43 42 41 40 39 38 37 36 35 35 34 32 31 30 30 30 30 31 32 32 33 33 33 33 33 33 33 32
103 104 106 107 108 109 110 110 109 109 110 111 112 112 113 113 113 113 112 112 113 112 110 109 106 103 100 97 94 92 87 82 81 80 79 78 77 75 73 71 69 66 63 60 58 55 52 49 48 46 45 44 44 44 44 43 42 41 42 42 41 40 39 38 37 36 35 35 34 32 30 30 30 31 31 31 31 31 32 32 32 32 32 32 31 30
104 106 107 109 110 111 112 113 114 113 113 113 114 114 115 115 116 115 114 112 112 111 110 107 104 102 99 97 95 93 90 85 83 83 82 81 81 79 77 75 72 69 66 63 60 58 55 52 50 47 45 44 44 44 43 42 40 40 40 40 40 40 39 37 36 35 34 34 33 30 29 30 31 31 31 31 31 30 30 31 31 31 30 30 29 28
105 107 108 110 112 113 114 115 117 117 117 116 116 116 115 116 116 117 116 114 112 111 110 107 105 102 101 99 97 95 94 91 89 89 87 85 83 82 79 78 75 71 67 64 61 59 57 54 51 49 47 46 45 45 44 43 41 40 40 40 40 39 39 38 36 34 32 32 31 30 29 29 30 30 30 30 30 29 29 29 29 29 29 28 28 27
105 107 109 111 113 114 116 117 118 119 119 119 119 119 118 117 116 116 117 116 114 112 110 109 107 104 102 101 99 97 95 94 92 90 89 86 83 81 79 77 77 74 71 67 63 60 58 55 52 49 48 46 45 45 45 43 42 41 40 40 40 39 39 38 37 35 33 31 31 30 29 29 29 29 28 28 28 28 28 28 28 27 27 26 26 25
106 108 110 112 114 116 117 119 120 120 121 121 120 121 120 119 118 117 117 117 115 113 112 110 109 106 102 100 99 96 95 93 91 89 88 86 83 81 78 76 75 74 71 68 65 62 59 56 53 51 49 47 46 45 45 44 42 40 40 40 40 39 39 38 37 36 34 32 30 29 29 29 28 27 26 26 26 26 26 27 26 26 25 25 24 22
108 110 111 113 116 118 119 121 123 123 124 124 123 123 123 123 122 121 120 119 117 115 113 111 109 107 103 100 99 96 94 93 91 88 87 86 83 81 78 76 74 73 70 67 65 62 59 57 54 52 49 48 46 46 45 44 42 40 39 39 39 39 38 38 37 35 33 31 30 29 28 28 27 26 25 25 24 24 24 24 24 24 23 23 21 20
108 111 113 115 117 119 121 124 126 126 126 126 125 124 124 124 124 123 122 121 119 117 115 112 110 108 105 101 99 97 95 93 92 89 87 86 84 82 78 75 73 71 70 67 64 62 60 57 55 52 49 47 46 45 44 43 42 41 39 38 38 37 37 36 35 33 31 30 29 28 27 26 25 24 24 24 23 22 22 22 21 21 21 20 18 17
109 111 114 116 118 120 122 123 125 127 127 127 126 125 124 124 123 122 122 121 121 120 118 115 111 109 106 102 99 98 95 93 92 90 87 86 84 82 80 77 74 72 69 67 64 62 59 57 55 52 50 48 46 44 43 42 42 41 39 37 36 36 34 34 33 31 30 30 29 27 25 24 23 23 23 22 21 21 20 20 19 19 18 17 15 15
109 111 114 116 118 120 121 123 125 127 128 128 128 127 127 126 124 123 122 122 121 121 119 117 113 110 107 103 100 98 96 94 91 89 86 85 83 81 79 77 75 73 70 67 64 61 59 56 54 52 50 48 46 45 43 42 41 40 38 37 35 34 33 32 31 30 29 29 27 25 23 22 21 21 21 20 19 19 19 18 17 16 15 14 13 13
110 112 115 117 119 121 122 124 125 127 128 129 129 129 128 127 126 124 123 122 121 119 118 116 114 111 107 103 100 97 95 93 90 88 85 83 81 80 78 76 74 72 70 67 63 61 58 56 54 51 49 48 46 45 43 41 40 40 38 36 35 33 32 31 31 30 28 27 25 23 21 20 20 20 19 18 17 17 17 17 15 14 13 12 12 13
111 113 115 118 120 121 123 124 125 127 129 130 130 130 128 127 126 125 124 123 120 118 115 113 111 109 107 103 99 96 94 93 91 89 85 82 80 78 77 75 72 70 69 66 63 60 58 55 53 51 49 47 46 44 42 40 40 39 37 35 34 33 32 31 30 28 27 25 23 21 20 19 19 19 18 17 16 15 15 15 13 12 11 11 11 11
112 114 116 118 120 122 123 124 125 127 129 131 131 131 130 128 127 126 124 122 120 117 113 111 109 108 106 103 100 96 95 93 93 91 87 84 80 77 75 73 71 69 68 65 62 59 56 55 53 50 48 46 45 44 42 40 39 39 37 35 33 32 31 29 28 27 25 23 21 20 19 18 18 17 16 15 14 14 13 12 11 10 10 10 10 9
114 115 117 119 121 123 125 126 127 128 129 131 132 132 131 130 129 127 125 123 120 118 115 113 110 108 106 104 102 98 96 95 94 93 90 86 82 79 76 73 71 69 67 65 62 59 56 54 52 50 47 45 44 43 41 39 38 37 36 34 32 30 29 28 26 24 23 21 19 18 18 18 18 17 16 14 13 13 12 10 8 8 8 8 8 8
116 117 119 121 123 124 126 128 129 130 130 132 132 133 133 132 131 129 126 124 122 120 118 116 113 110 107 105 102 100 98 96 96 94 91 88 84 80 77 74 71 69 67 66 63 60 57 55 53 50 47 45 44 42 40 39 38 36 34 32 30 29 28 26 24 22 21 19 17 17 17 17 17 16 15 14 13 12 10 8 7 7 6 7 7 6
Wind_Direction
294 293 292 292 292 292 292 292 293 293 293 293 294 294 294 294 295 295 295 295 295 295 295 295 295 295 295 295 295 295 295 294 294 294 293 293 292 291 291 290 290 290 289 289 289 289 289 288 288 287 287 286 285 284 283 281 280 278 276 274 273 271 270 268 266 265 264 263 262 261 261 261 261 261 261 262 262 261 261 260 260 259 259 258 258 257
292 292 292 292 293 293 293 294 294 294 295 295 296 297 297 297 297 297 297 297 297 296 296 296 295 294 294 294 293 293 293 293 293 293 292 291 291 291 291 290 290 290 290 290 290 290 290 289 289 288 287 287 286 285 284 283 282 280 278 276 275 273 272 270 269 267 266 265 263 262 261 260 260 259 259 259 260 260 260 260 260 260 260 259 258 257
293 293 294 294 295 295 295 296 296 297 298 298 299 299 299 298 298 297 296 296 296 295 294 294 294 293 292 292 292 292 293 293 293 292 291 291 291 290 290 290 290 291 291 291 292 292 291 291 290 290 289 288 287 286 285 284 283 282 280 278 276 275 274 272 270 269 268 266 265 264 262 261 260 259 258 258 257 257 257 258 258 259 259 259 259 258
296 296 296 297 297 298 299 299 299 300 300 301 300 300 299 298 297 296 295 294 294 294 294 294 294 293 293 293 293 293 293 293 292 291 291 291 291 291 291 291 291 292 292 292 292 292 292 292 291 291 290 289 288 287 285 284 283 282 281 280 279 277 276 274 272 270 269 267 266 265 263 262 261 260 259 258 257 256 256 256 255 256 257 257 258 258
299 299 300 301 301 302 302 302 302 302 302 301 300 299 298 298 297 297 296 296 296 296 296 296 296 296 296 296 295 295 294 293 293 292 292 292 292 292 292 292 292 292 292 292 292 291 291 291 290 290 289 289 288 287 286 285 284 283 282 281 279 278 277 275 273 271 270 268 266 265 264 263 262 261 261 260 259 257 256 255 254 254 254 255 255 256
303 304 304 304 304 304 303 303 303 302 301 300 300 299 299 299 299 299 299 299 299 299 299 299 299 298 298 297 296 296 295 295 294 294 294 294 293 293 292 293 293 293 293 293 293 293 292 291 291 290 289 288 287 287 286 285 284 283 282 280 279 277 276 275 273 272 271 270 267 266 265 264 263 262 262 261 260 259 257 255 254 253 253 253 254 254
307 307 307 306 305 304 303 303 302 301 301 301 301 301 302 302 302 302 302 302 302 302 301 301 300 301 301 300 299 298 297 297 297 296 296 295 294 294 294 295 295 295 295 294 294 293 293 292 291 290 290 289 288 287 286 285 283 282 280 279 278 277 276 275 274 272 271 270 268 267 266 265 264 263 262 262 261 260 259 258 256 254 252 252 252 252
308 307 306 305 304 303 303 303 303 303 304 304 304 304 304 305 305 305 305 305 304 304 303 303 302 303 303 301 300 300 299 299 298 297 296 295 295 295 295 295 295 294 294 294 293 292 292 292 291 291 290 289 288 287 286 285 284 282 281 279 278 276 275 274 273 272 271 270 269 267 266 265 264 263 262 262 261 261 261 260 259 257 255 253 252 251
308 307 306 306 305 305 306 306 307 307 307 307 307 307 307 307 307 307 307 307 306 305 304 304 303 303 302 301 300 300 300 299 298 296 295 294 294 295 295 296 296 296 296 295 295 294 294 293 292 292 290 289 287 286 285 284 283 282 281 280 279 277 276 274 273 273 272 271 270 268 267 265 265 264 263 262 262 262 262 262 261 260 259 257 254 252
310 310 310 309 309 310 310 310 310 310 310 310 310 310 309 309 308 307 307 305 304 303 302 302 302 303 301 300 299 299 299 298 297 296 296 296 296 298 299 300 300 300 299 298 298 298 297 296 294 293 290 288 287 286 285 283 282 281 280 280 279 278 278 276 275 274 272 271 270 269 268 267 266 265 264 264 263 263 262 262 262 261 261 260 259 256
315 315 314 314 314 314 315 315 315 314 314 313 311 310 309 308 307 306 305 304 303 303 302 301 302 301 299 299 299 299 299 299 299 299 299 300 301 302 303 303 303 301 300 300 300 299 298 296 295 293 291 290 288 287 286 284 283 282 281 280 280 279 279 278 277 275 274 272 271 270 269 268 266 265 265 264 263 262 262 261 261 261 260 260 259 259
320 320 319 319 319 319 319 318 317 315 313 312 310 309 308 307 306 305 304 303 303 303 302 301 301 299 298 299 300 300 301 302 302 302 301 302 303 304 304 303 302 301 301 300 300 298 296 294 293 292 290 289 288 287 285 284 283 282 281 280 280 279 278 278 277 276 275 274 273 272 271 270 268 266 265 264 263 262 261 261 260 260 260 259 259 259
324 324 323 322 322 321 320 318 316 314 313 311 310 309 308 306 305 303 301 301 302 304 307 306 304 301 300 302 302 302 302 302 301 301 301 302 304 305 304 303 303 303 302 301 300 299 297 296 294 293 291 289 287 286 284 283 282 281 280 280 279 279 278 277 276 275 274 273 273 272 271 270 269 268 266 265 263 263 262 262 261 260 260 260 260 259
327 326 324 324 324 322 321 318 316 315 314 312 312 311 310 309 308 307 307 307 308 311 314 313 311 307 304 304 304 303 304 304 304 304 304 305 306 307 307 307 307 306 305 305 303 302 300 299 298 296 294 292 290 288 286 285 283 282 281 280 279 279 277 276 275 274 273 272 271 270 269 268 268 268 268 266 265 264 264 263 262 261 261 261 260 260
330 329 328 327 326 324 321 318 316 316 316 316 317 318 318 318 319 319 319 318 318 320 319 316 315 313 311 310 310 310 310 309 308 307 307 309 311 312 312 312 310 309 309 308 306 305 304 303 302 300 298 296 294 292 290 289 287 285 283 282 280 279 278 277 276 274 273 271 269 268 268 267 267 266 266 266 265 264 264 263 262 261 261 260 260 260
334 332 330 329 327 325 324 322 323 324 325 326 326 327 327 327 327 327 327 326 325 326 325 321 321 320 317 317 316 315 314 313 312 313 313 315 315 315 315 313 312 311 310 309 307 306 306 305 304 302 299 297 295 294 293 291 289 287 285 283 281 279 278 277 276 275 274 272 270 268 267 266 266 265 265 264 264 263 262 262 262 261 260 260 260 260
336 334 333 333 332 332 332 333 334 335 335 335 334 333 333 332 332 331 330 329 327 328 328 326 325 322 319 318 318 318 318 318 318 318 318 318 318 317 316 315 314 313 312 310 309 307 307 307 305 303 301 299 297 296 295 293 291 288 286 284 282 280 278 277 276 275 274 273 271 270 268 267 266 265 264 264 264 263 262 261 261 260 260 260 259 259
341 340 340 342 342 341 341 341 341 342 341 340 339 337 336 336 334 332 331 330 330 330 329 328 328 324 321 322 323 323 322 322 322 321 320 320 320 319 318 317 316 315 313 312 311 310 310 309 307 304 302 301 300 299 297 295 293 291 288 286 284 282 280 279 278 277 275 274 273 271 270 268 267 266 265 264 264 263 262 262 261 260 259 259 259 259
349 349 348 348 349 348 347 346 345 345 344 343 342 340 338 337 336 334 333 333 334 333 329 330 332 328 325 326 327 325 324 324 323 323 323 323 322 322 321 319 318 316 315 315 313 312 312 310 307 304 303 302 301 300 298 296 294 292 290 288 286 284 283 281 280 278 277 275 274 272 271 270 269 268 266 265 264 263 262 261 261 260 259 259 259 259
355 354 353 352 352 352 351 349 348 347 346 344 343 341 340 339 337 336 336 336 335 333 331 332 336 332 328 328 327 326 326 326 325 326 326 326 325 325 324 322 321 318 318 317 314 313 313 311 308 306 305 304 302 301 299 297 295 293 292 290 288 286 285 283 282 280 279 277 275 273 272 271 270 269 268 267 266 264 263 262 260 259 258 258 258 258
357 358 357 355 354 353 352 351 349 348 348 346 344 343 341 340 338 337 337 338 337 335 333 335 338 334 329 328 328 328 329 328 327 328 329 329 329 328 326 325 323 320 319 319 318 317 316 313 310 308 307 306 305 303 301 299 298 296 295 293 291 289 288 286 284 282 281 279 278 276 274 273 272 271 270 269 268 267 266 265 263 261 260 258 258 257
358 359 358 357 355 354 353 352 351 349 349 348 346 344 342 341 340 339 339 340 340 338 336 336 339 336 332 331 331 331 331 330 328 329 331 332 331 329 328 326 324 322 322 322 321 320 318 316 313 312 310 309 307 305 303 301 300 299 298 297 295 293 291 290 287 285 283 282 281 279 278 276 274 273 272 271 270 269 268 267 266 265 264 262 261 260
358 358 359 357 355 355 354 353 351 350 349 349 347 345 344 343 343 341 341 342 342 340 337 337 339 339 336 335 333 332 332 331 330 331 332 333 333 331 329 328 326 323 322 323 323 321 320 318 316 315 313 311 309 307 304 303 302 301 300 298 297 295 294 292 290 288 287 285 284 283 281 280 277 275 273 272 271 270 269 268 267 267 266 266 265 264
358 357 358 357 356 355 354 353 351 350 349 349 348 347 347 346 345 343 342 343 344 341 338 337 339 341 338 336 334 333 333 333 332 332 333 334 334 332 331 329 327 324 323 323 324 322 321 319 317 316 315 312 310 308 306 304 303 302 300 299 297 295 294 293 291 290 290 288 287 285 283 282 280 278 276 274 273 272 270 269 269 269 268 267 266 264
358 357 356 357 356 355 354 353 353 352 351 351 351 350 349 348 346 344 343 344 344 343 340 338 339 341 339 337 336 334 334 334 334 334 334 334 334 334 332 330 328 325 324 325 325 324 322 321 320 318 316 314 312 310 309 307 305 303 301 300 298 296 295 293 292 292 291 290 288 286 284 283 281 280 278 277 275 273 272 271 271 270 268 267 266 265
359 358 356 356 356 355 355 355 354 354 354 353 353 352 351 349 347 345 344 344 344 344 343 340 339 340 340 339 338 336 335 335 335 335 335 335 335 334 333 331 330 327 325 326 326 326 326 324 322 321 318 316 314 312 311 309 307 305 303 301 299 297 296 295 295 294 293 292 290 288 286 283 282 280 279 277 276 274 274 273 271 269 267 266 265 265
0 360 358 356 356 356 357 356 355 355 355 354 354 353 351 350 349 346 344 344 344 344 344 342 340 341 342 341 340 339 338 337 337 336 335 336 335 334 334 333 332 330 328 329 330 331 329 326 324 322 320 318 316 314 313 311 309 307 305 302 300 299 298 298 297 297 296 294 292 289 287 284 281 279 277 276 276 276 275 273 271 269 268 266 266 265
1 1 360 358 357 357 357 357 356 356 355 355 354 353 352 351 350 347 343 345 346 344 344 343 341 341 342 342 342 342 341 339 337 336 336 337 337 336 336 336 336 334 333 332 332 331 330 327 324 323 321 319 318 316 314 312 310 308 306 304 303 302 301 300 299 298 297 295 293 290 287 284 281 279 277 276 275 275 273 272 271 270 269 267 266 266
3 2 1 360 358 358 357 358 358 356 355 355 354 353 353 352 351 348 344 345 347 345 344 345 344 343 343 344 344 343 342 340 339 339 339 339 338 338 338 339 339 337 335 332 329 328 328 327 325 323 321 320 319 317 315 313 311 310 307 306 305 304 304 302 301 299 296 294 291 288 286 284 282 281 279 278 276 274 273 273 273 272 271 270 268 267
4 3 3 1 360 359 359 358 358 357 356 355 354 354 353 352 352 349 346 346 347 347 346 346 346 345 344 345 345 344 343 342 342 342 341 340 339 339 339 340 339 337 334 332 330 329 329 327 325 323 322 321 320 319 317 314 313 311 309 307 306 306 305 303 301 299 296 292 289 286 285 283 282 282 281 279 277 276 275 275 274 274 273 273 272 271
5 4 4 3 1 360 359 358 358 357 356 356 355 354 353 353 353 350 347 346 347 347 347 347 346 346 345 345 345 345 344 343 342 342 342 340 338 339 339 339 338 336 335 334 332 331 330 328 326 325 323 322 321 319 317 315 313 311 309 307 307 307 306 304 302 298 295 291 288 286 284 284 283 282 280 279 277 277 276 275 274 273 273 273 273 273
6 5 4 4 2 1 360 359 359 358 357 356 355 354 353 353 354 352 348 347 348 348 348 347 346 347 346 345 346 346 345 343 341 342 342 341 341 341 339 339 339 338 336 334 333 333 331 328 327 326 324 323 322 320 318 315 313 312 310 309 309 308 307 305 302 299 295 292 289 287 286 285 284 282 280 279 278 277 276 275 274 273 273 273 273 273
7 6 5 5 4 2 0 360 359 358 357 356 355 354 354 353 354 354 349 348 349 349 348 348 348 347 346 344 345 346 346 343 342 343 343 343 344 343 340 339 340 340 338 335 333 333 332 329 328 326 325 324 322 321 319 318 316 315 314 312 312 311 309 306 303 300 296 294 291 290 289 287 285 282 280 280 279 277 276 275 275 275 275 275 274 274
7 6 5 4 4 3 1 0 359 358 357 357 356 355 354 353 354 354 351 349 350 350 350 349 348 347 345 344 345 347 348 346 344 344 344 343 344 344 342 341 341 341 341 338 335 334 333 331 329 327 326 325 324 323 321 320 319 317 316 315 314 313 310 307 304 302 299 296 294 293 291 289 287 284 282 281 279 277 277 277 277 278 278 278 278 277
7 6 5 4 3 3 1 0 360 359 358 357 356 355 354 353 353 354 353 351 350 351 350 349 348 346 347 346 345 347 349 348 345 345 344 342 343 344 344 343 342 342 343 341 338 337 335 333 331 330 328 327 326 325 324 322 321 319 319 317 316 315 312 309 307 304 301 299 297 296 294 293 291 288 286 283 281 280 280 280 280 280 281 280 279 278
7 6 5 4 3 2 1 1 0 359 358 357 356 355 354 354 353 353 353 351 350 350 349 349 348 348 348 347 345 346 349 348 345 344 344 342 343 345 346 346 345 344 344 343 340 339 338 336 335 333 330 329 328 327 326 325 323 321 320 318 317 315 314 312 310 307 304 301 299 299 298 297 295 292 289 287 285 284 284 284 283 283 283 282 280 279
7 6 5 5 4 3 2 1 0 359 358 357 356 356 355 354 354 353 353 352 351 350 349 349 349 349 348 347 345 345 347 348 345 344 344 344 345 347 348 349 347 345 345 344 342 340 340 339 337 335 333 331 330 328 327 326 325 322 320 318 317 316 315 313 312 310 307 304 303 303 303 300 297 294 292 290 289 288 287 287 287 287 286 284 282 282
7 7 6 5 4 3 2 1 0 360 359 358 357 357 355 355 354 354 353 353 351 350 350 350 349 348 347 346 345 345 346 347 346 346 347 347 347 348 349 350 349 348 346 345 344 342 342 340 339 338 336 334 332 330 328 327 326 323 320 318 316 316 315 313 312 311 308 306 305 306 305 302 298 296 295 294 292 291 290 290 290 288 287 286 285 283
7 6 6 5 5 4 3 1 1 0 360 359 358 357 356 355 354 354 353 353 352 351 350 349 348 348 348 347 346 346 347 348 348 348 349 350 350 349 349 350 350 349 348 346 345 343 342 342 340 339 338 336 333 331 329 328 327 324 321 318 316 315 314 313 311 310 308 307 306 306 304 301 299 298 298 296 295 294 293 291 290 289 288 287 286 285
7 6 6 5 5 4 3 2 1 0 0 360 359 358 357 356 355 354 352 352 352 351 350 349 348 349 349 348 348 348 348 348 350 350 350 350 350 350 349 350 349 349 348 347 346 344 343 342 341 340 339 337 335 332 331 330 329 327 323 320 317 316 314 313 312 310 309 307 306 305 302 300 299 299 298 297 296 295 294 292 291 290 289 288 287 287
7 7 6 5 5 4 3 2 2 1 0 0 359 358 357 356 355 354 353 352 352 351 350 350 349 349 350 350 349 349 349 349 350 350 349 349 350 350 350 350 349 348 347 347 346 344 343 342 341 340 339 338 336 334 332 331 331 329 325 322 319 317 315 313 312 312 311 309 307 306 303 300 298 299 299 297 296 295 294 293 292 291 289 288 288 287
7 7 6 5 4 4 3 2 2 1 1 0 359 358 356 356 355 354 353 352 352 351 351 351 350 350 350 351 350 349 350 350 350 350 349 348 349 350 350 350 350 348 346 346 345 344 343 342 341 341 340 339 338 335 333 332 332 330 326 322 319 317 315 313 313 313 314 313 311 307 304 301 300 300 299 298 297 295 294 293 293 292 290 289 288 288
7 6 6 5 4 4 3 2 2 1 1 0 360 359 357 356 355 355 354 353 352 352 351 351 350 350 350 351 350 350 351 350 349 349 349 348 348 349 350 350 350 348 346 345 344 343 343 342 341 341 340 339 338 336 334 333 332 330 326 322 319 317 316 315 315 315 315 314 311 307 305 304 304 303 300 299 298 296 294 294 293 291 290 289 289 291
7 7 6 6 5 4 4 3 2 2 1 1 0 359 358 356 356 355 354 353 352 352 352 351 351 350 350 352 351 351 351 351 349 349 349 349 348 349 349 350 350 349 347 345 344 343 343 342 341 341 340 340 339 337 336 335 333 330 327 323 319 317 317 317 317 316 314 311 309 308 307 306 305 303 301 301 300 298 295 294 293 291 290 290 290 294
7 7 6 6 6 5 4 4 3 2 1 1 0 360 359 357 356 355 354 353 353 352 352 351 351 350 351 352 352 351 351 351 350 349 349 350 349 349 348 349 350 349 347 346 345 344 343 342 341 340 340 340 339 339 338 336 333 329 326 323 320 319 320 319 317 314 311 310 310 310 308 307 305 303 302 302 301 299 297 295 293 292 290 291 293 299
7 7 6 6 6 5 4 4 3 2 1 1 0 360 359 358 356 355 354 354 354 353 352 351 351 351 351 352 352 352 351 351 350 349 349 350 349 348 348 348 349 348 347 346 345 344 343 342 342 341 340 340 339 339 340 337 333 329 326 324 322 323 324 320 316 313 311 311 312 311 309 307 305 304 304 304 302 299 298 297 294 292 292 296 302 306
7 7 7 6 5 5 4 4 4 2 1 1 1 0 360 358 357 356 355 354 354 354 352 351 351 350 351 351 352 352 352 351 350 349 349 350 349 348 348 348 348 348 346 345 345 345 344 343 342 341 340 340 339 340 340 338 333 329 328 326 326 327 325 320 316 314 313 313 313 312 310 308 306 306 306 304 301 298 297 296 294 295 299 305 308 308
7 7 7 6 5 5 4 4 3 3 2 1 1 0 360 359 357 356 355 355 354 353 353 352 351 350 350 351 352 353 352 351 350 349 349 350 350 349 348 348 348 348 346 345 345 345 344 343 342 342 341 340 339 340 341 339 334 331 330 330 329 328 325 321 318 316 316 316 315 313 311 309 308 308 307 304 301 297 295 293 295 300 307 312 311 309
7 6 6 6 5 4 3 3 3 3 2 1 0 0 360 359 358 357 356 355 353 353 353 353 352 351 351 351 351 353 353 352 351 350 349 349 350 349 348 348 348 348 347 345 346 346 345 344 343 343 342 340 339 340 341 340 336 334 333 332 331 329 325 322 320 319 318 318 316 314 313 312 311 310 308 305 301 298 294 293 297 307 315 317 316 317
7 6 6 6 5 4 3 3 2 2 2 1 0 360 359 359 358 357 356 355 353 353 353 353 353 352 352 351 351 352 354 353 352 350 350 349 349 349 349 348 348 348 347 346 346 346 346 345 343 343 343 341 339 340 342 341 339 337 335 333 332 329 326 324 323 321 320 319 318 317 316 315 314 312 310 307 302 297 295 296 305 316 321 321 322 326
7 7 6 6 6 5 4 3 2 2 1 1 360 359 359 359 359 357 356 355 354 354 354 354 353 352 352 352 351 352 353 353 352 351 350 349 349 349 349 348 348 348 348 347 346 347 346 345 345 344 344 341 340 341 344 343 340 339 336 334 333 332 330 329 328 325 323 321 320 320 319 317 316 314 312 307 302 298 299 306 319 326 327 327 330 335